Nickajack Lake Weather Center

Moon Phase Calendar



Nickajack Lake Water Level
Online Cameras

 


      

Current Conditions in Ketner Mill
4/20/2024 11:45:30 PM

57°F
Feels Like 55
Clouds
Humidity
56%
Pressure
30.03"
Wind
1 mph (N)
Dew Point
41°F
UV Index
0/10 (Low)
Visibility
6 mi

Hourly Forecast

Date & Time Sat, Apr 20
11:00 PM
Sun, Apr 21
12:00 AM
Sun, Apr 21
1:00 AM
Sun, Apr 21
2:00 AM
Sun, Apr 21
3:00 AM
Sun, Apr 21
4:00 AM
Sun, Apr 21
5:00 AM
Sun, Apr 21
6:00 AM
Sun, Apr 21
7:00 AM
Sun, Apr 21
8:00 AM
Sun, Apr 21
9:00 AM
Sun, Apr 21
10:00 AM
Sun, Apr 21
11:00 AM
Sun, Apr 21
12:00 PM
Sun, Apr 21
1:00 PM
Sun, Apr 21
2:00 PM
Sun, Apr 21
3:00 PM
Sun, Apr 21
4:00 PM
Sun, Apr 21
5:00 PM
Sun, Apr 21
6:00 PM
Sun, Apr 21
7:00 PM
Sun, Apr 21
8:00 PM
Sun, Apr 21
9:00 PM
Sun, Apr 21
10:00 PM
Sun, Apr 21
11:00 PM
Mon, Apr 22
12:00 AM
Mon, Apr 22
1:00 AM
Mon, Apr 22
2:00 AM
Mon, Apr 22
3:00 AM
Mon, Apr 22
4:00 AM
Mon, Apr 22
5:00 AM
Mon, Apr 22
6:00 AM
Mon, Apr 22
7:00 AM
Mon, Apr 22
8:00 AM
Mon, Apr 22
9:00 AM
Mon, Apr 22
10:00 AM
Mon, Apr 22
11:00 AM
Mon, Apr 22
12:00 PM
Mon, Apr 22
1:00 PM
Mon, Apr 22
2:00 PM
Mon, Apr 22
3:00 PM
Mon, Apr 22
4:00 PM
Mon, Apr 22
5:00 PM
Mon, Apr 22
6:00 PM
Mon, Apr 22
7:00 PM
Mon, Apr 22
8:00 PM
Mon, Apr 22
9:00 PM
Mon, Apr 22
10:00 PM
Condition
Clouds

Clouds

Clouds

Clouds

Clouds

Clouds

Clouds

Clouds

Clouds

Clouds

Clouds

Rain

Rain

Clouds

Clouds

Clouds

Clouds

Clouds

Clouds

Clouds

Clouds

Clouds

Clouds

Clouds

Clouds

Clouds

Clouds

Clear

Clear

Clear

Clear

Clear

Clear

Clear

Clear

Clear

Clear

Clear

Clear

Clear

Clear

Clear

Clear

Clear

Clear

Clear

Clear

Clear
Temperature 56°F57°F55°F53°F50°F48°F46°F45°F45°F45°F46°F42°F44°F48°F54°F55°F55°F57°F56°F53°F48°F45°F44°F42°F39°F38°F37°F36°F35°F34°F34°F34°F37°F44°F48°F51°F54°F56°F59°F60°F62°F62°F61°F59°F51°F46°F44°F43°F
Feels Like 54°F55°F53°F51°F48°F46°F44°F43°F43°F43°F44°F39°F42°F46°F51°F52°F52°F54°F53°F50°F44°F41°F40°F38°F36°F35°F34°F33°F32°F32°F31°F30°F34°F40°F44°F48°F51°F53°F56°F58°F59°F59°F58°F57°F49°F46°F44°F43°F
Cloudiness 100%100%100%100%100%100%100%100%100%100%100%100%100%100%100%100%100%70%55%50%45%26%62%73%55%45%38%0%0%0%0%0%0%0%0%0%0%0%0%0%0%0%0%0%0%0%0%0%
Visibility 6 mi6 mi6 mi6 mi6 mi6 mi6 mi6 mi6 mi6 mi6 mi6 mi6 mi6 mi6 mi6 mi6 mi6 mi6 mi6 mi6 mi6 mi6 mi6 mi6 mi6 mi6 mi6 mi6 mi6 mi6 mi6 mi6 mi6 mi6 mi6 mi6 mi6 mi6 mi6 mi6 mi6 mi6 mi6 mi6 mi6 mi6 mi6 mi
Precipitation 0%0%0%0%0%0%0%0%0%0%0%93%100%85%53%0%0%0%0%0%0%0%0%0%0%0%0%0%0%0%0%0%0%0%0%0%0%0%0%0%0%0%0%0%0%0%0%0%
Humidity 59%56%61%64%67%70%71%70%68%65%59%84%79%63%42%40%41%40%42%51%57%64%67%71%78%81%84%86%88%88%88%87%77%60%47%42%38%35%33%31%30%31%33%50%61%67%72%74%
Dew Point 42°F41°F42°F41°F40°F39°F38°F37°F36°F36°F34°F39°F39°F37°F33°F32°F33°F34°F34°F36°F35°F35°F35°F34°F34°F34°F34°F33°F33°F33°F32°F32°F32°F32°F30°F30°F30°F31°F31°F31°F31°F32°F33°F42°F39°F37°F37°F36°F
Pressure 30.03"30.03"30.03"30.03"30.06"30.09"30.09"30.09"30.12"30.12"30.15"30.15"30.18"30.12"30.09"30.06"30.06"30.03"30.03"30.06"30.09"30.12"30.15"30.18"30.18"30.18"30.18"30.18"30.18"30.18"30.21"30.21"30.24"30.24"30.24"30.21"30.21"30.18"30.18"30.15"30.12"30.12"30.12"30.12"30.15"30.18"30.18"30.18"
Wind Speed 4.2 mph4.5 mph5.8 mph4.5 mph4.2 mph4.6 mph4.3 mph5.1 mph4.8 mph4.8 mph5.1 mph4.6 mph4.1 mph4.8 mph6.1 mph7.2 mph8.1 mph9.6 mph10.9 mph9.9 mph8.6 mph6.3 mph6.2 mph5.6 mph3.8 mph3.4 mph3.5 mph3.5 mph3.4 mph3.5 mph3.7 mph4 mph4 mph6.1 mph9 mph8.9 mph7.8 mph7 mph6 mph5 mph4.4 mph3.9 mph3.3 mph2.4 mph1 mph0.8 mph1.3 mph1 mph
Wind
Direction
339°
NNW
345°
NNW
359°
N
348°
NNW
350°
N
10°
N
330°
NNW
349°
N
335°
NNW
344°
NNW
340°
NNW
344°
NNW
333°
NNW
356°
N

N
355°
N
343°
NNW
340°
NNW
337°
NNW
337°
NNW
341°
NNW
334°
NNW
333°
NNW
332°
NNW
315°
NW
316°
NW
319°
NW
325°
NW
333°
NNW
339°
NNW
342°
NNW
349°
N
358°
N
25°
NNE
43°
NE
47°
NE
52°
NE
56°
NE
53°
NE
46°
NE
43°
NE
51°
NE
68°
ENE
105°
ESE
132°
SE
105°
ESE
10°
N
35°
NE

Daily Forecast

Date High Low Precip. Humidity
Today
Apr 20

Clouds
65 °F
52 °F
1%
62%
Sunday
Apr 21

Rain
57 °F
39 °F
100%
63%
Monday
Apr 22

Clear
62 °F
34 °F
0%
35%
Tuesday
Apr 23

Clear
67 °F
38 °F
0%
42%
Wednesday
Apr 24

Rain
66 °F
45 °F
26%
36%
Thursday
Apr 25

Clouds
68 °F
38 °F
0%
39%
Friday
Apr 26

Clouds
71 °F
50 °F
0%
54%
Saturday
Apr 27

Rain
62 °F
55 °F
100%
96%
Sunday
Apr 28

Rain
75 °F
58 °F
93%
62%
Monday
Apr 29

Clouds
80 °F
58 °F
2%
47%
Tuesday
Apr 30

Rain
80 °F
61 °F
100%
53%
Wednesday
May 1

Rain
76 °F
60 °F
100%
69%
Thursday
May 2

Rain
67 °F
56 °F
100%
94%
Friday
May 3

Clouds
60 °F
43 °F
0%
58%
Saturday
May 4

Clouds
61 °F
38 °F
0%
39%
Sunday
May 5

Clouds
63 °F
39 °F
0%
37%

Temperature 8-14 Day Outlook



Precipitation 8-14 Day Outlook




Quick Links
Nickajack Lake News
Nickajack Lake Photos
Nickajack Lake Videos




About Us
Contact Us
Site Map
Search Site
Advertise With Us
   
Nickajack.USLakes.info
THE NICKAJACK LAKE WEBSITE

Copyright 2024, Lakes Online
Privacy    |    Legal